Location: Arrodets-la-Barthe
(43.0306°N, 0.2829°E)
Time: 19:21:06
(UTC+00:00)

CSL-04 Rocket - Pass Details

Date: 03 June 2022
Orbit: 807 x 859 km, 98.9° (Epoch: 25 June)

Event Time Altitude Azimuth Distance (km) Brightness Sun altitude
Rises 21:15:44 0° 220° (SW) 3,334 6.7 -14.8°
Reaches altitude 10° 21:19:50 10° 252° (WSW) 2,421 6.3 -15.2°
Maximum altitude 21:21:42 12° 272° (W) 2,306 6.5 -15.4°
Drops below altitude 10° 21:23:36 10° 293° (WNW) 2,439 7.0 -15.7°
Sets 21:27:48 0° 325° (NW) 3,395 8.7 -16.1°
